Weather History for Frankfort, KY

Change the Weather History Date:

Saturday, October 13, 2012

  Actual Average Record
Temperature  
Mean Temperature 58 °F 57 °F  
Max Temperature 75 °F 69 °F 90 °F (1947)
Min Temperature 41 °F 45 °F 26 °F (1988)
Degree Days  
Heating Degree Days 7 8  
Month to date heating degree days 135 89  
Since 1 July heating degree days 204 143  
Cooling Degree Days 0 1  
Month to date cooling degree days 0 15  
Year to date cooling degree days 1308 1150  
Growing Degree Days 8 (Base 50)    
Moisture  
Dew Point 50 °F    
Average Humidity 71    
Maximum Humidity 89    
Minimum Humidity 53    
Precipitation  
Precipitation 0.00 in 0.10 in 2.05 in (1983)
Month to date precipitation 0.53 1.29  
Year to date precipitation 32.13 35.93  
Sea Level Pressure  
Sea Level Pressure 30.19 in    
Wind  
Wind Speed 7 mph (SSE)    
Max Wind Speed 17 mph    
Max Gust Speed 22 mph    
Visibility 10 miles    
Events      
T = Trace of Precipitation, MM = Missing Value Source: NWS Daily Summary

Daily Weather History Graph

Daily Weather History Graph

Search for Another Location

Airport:

Trip Planner

Search our weather history database for the weather conditions in past years. The results will help you decide how hot, cold, wet, or windy it might be!

Date:

Astronomy

Oct. 13, 2012 Rise Set
Actual Time 7:46 AM EDT 7:03 PM EDT
Civil Twilight 7:20 AM EDT 7:30 PM EDT
Nautical Twilight 6:49 AM EDT 8:00 PM EDT
Astronomical Twilight 6:19 AM EDT 8:31 PM EDT
Moon 5:37 AM EDT (10/13) 5:46 PM EDT (10/13)
Length of Visible Light 12h 10m
Length of Day
11h 17m
Waning Crescent, 5% of the Moon is Illuminated
Oct 13
Waning Crescent
Oct 15
New
Oct 21
First Quarter
Oct 29
Full
Nov 6
Last Quarter

Hourly Weather History & Observations

Time (EDT) Temp. Windchill Dew Point Humidity Pressure Visibility Wind Dir Wind Speed Gust Speed Precip Events Conditions
12:53 AM 46.9 °F - 37.9 °F 71% 30.31 in 10.0 mi East 5.8 mph - N/A   Clear
1:53 AM 46.9 °F - 39.0 °F 74% 30.29 in 10.0 mi East 4.6 mph - N/A   Clear
2:53 AM 46.9 °F - 39.0 °F 74% 30.29 in 10.0 mi East 3.5 mph - N/A   Clear
3:53 AM 45.0 °F 43.5 °F 39.0 °F 80% 30.28 in 10.0 mi East 3.5 mph - N/A   Clear
4:53 AM 43.0 °F - 39.0 °F 86% 30.28 in 10.0 mi Calm Calm - N/A   Clear
5:53 AM 43.0 °F 41.3 °F 39.9 °F 89% 30.27 in 10.0 mi East 3.5 mph - N/A   Clear
6:53 AM 42.1 °F - 39.0 °F 89% 30.27 in 10.0 mi Calm Calm - N/A   Clear
7:53 AM 42.1 °F - 39.0 °F 89% 30.26 in 10.0 mi Calm Calm - N/A   Clear
8:53 AM 46.9 °F - 43.0 °F 86% 30.27 in 10.0 mi Variable 3.5 mph - N/A   Clear
9:53 AM 54.0 °F - 45.0 °F 72% 30.26 in 10.0 mi SSE 8.1 mph - N/A   Clear
10:53 AM 60.1 °F - 48.9 °F 67% 30.25 in 10.0 mi SSE 5.8 mph - N/A   Clear
11:53 AM 66.0 °F - 54.0 °F 65% 30.21 in 10.0 mi South 9.2 mph - N/A   Clear
12:53 PM 71.1 °F - 55.9 °F 59% 30.21 in 10.0 mi SSW 11.5 mph 16.1 mph N/A   Partly Cloudy
2:53 PM 73.9 °F - 60.1 °F 62% 30.14 in 10.0 mi SSW 13.8 mph - N/A   Scattered Clouds
4:53 PM 72.0 °F - 61.0 °F 68% 30.12 in 10.0 mi SSW 6.9 mph - N/A   Overcast
5:11 PM 73.4 °F - 60.8 °F 65% 30.12 in 10.0 mi South 6.9 mph - N/A   Overcast
5:39 PM 71.6 °F - 60.8 °F 69% 30.11 in 10.0 mi SSW 8.1 mph - N/A   Overcast
5:53 PM 72.0 °F - 61.0 °F 68% 30.11 in 10.0 mi South 10.4 mph - N/A   Overcast
6:14 PM 71.6 °F - 60.8 °F 69% 30.11 in 10.0 mi South 8.1 mph - N/A   Scattered Clouds
6:53 PM 70.0 °F - 60.1 °F 71% 30.10 in 10.0 mi SSW 10.4 mph - N/A   Partly Cloudy
8:53 PM 68.0 °F - 60.1 °F 76% 30.09 in 10.0 mi South 8.1 mph - N/A   Partly Cloudy
10:53 PM 66.0 °F - 57.9 °F 75% 30.06 in 10.0 mi South 10.4 mph - N/A   Clear
11:53 PM 66.0 °F - 57.9 °F 75% 30.06 in 10.0 mi South 9.2 mph - N/A   Clear